FW1542 Weather Reports


time (UTC)temp
C
wind
direction
speed
KPH
gust
KPH
rain 1hr
cm
rain 24hr
cm
rain mn
cm
humidity
%
barometer
mb
20260904154555 28 164 3.2 9.7 0.00 0.00 0.00 80 1016.0
20260904154552 28 183 1.6 11.3 0.00 0.00 0.00 80 1014.6
20260904153051 28 153 4.8 9.7 0.00 0.00 0.00 81 1016.0
20260904151558 28 229 3.2 14.5 0.00 0.00 0.00 83 1014.4
20260904151550 28 215 4.8 11.3 0.00 0.00 0.00 83 1015.8
20260904150056 27 128 4.8 12.9 0.00 0.00 0.00 85 1014.3
20260904150046 27 128 4.8 11.3 0.00 0.00 0.00 85 1015.7
20260904144609 27 110 4.8 20.9 0.00 0.00 0.00 85 1014.2
20260904144604 27 175 4.8 20.9 0.00 0.00 0.00 86 1015.8
20260904143103 27 59 8.0 17.7 0.00 0.00 0.00 86 1014.2
20260904143056 27 157 8.0 16.1 0.00 0.00 0.00 87 1015.9
20260904141559 27 145 6.4 19.3 0.00 0.00 0.00 87 1014.2
20260904141531 27 145 8.0 17.7 0.00 0.00 0.00 88 1015.9
20260904140058 26 171 4.8 17.7 0.00 0.00 0.00 88 1014.1
20260904140032 26 170 6.4 17.7 0.00 0.00 0.00 89 1015.8
20260904134602 26 139 4.8 17.7 0.00 0.00 0.00 89 1014.1
20260904134529 26 142 4.8 16.1 0.00 0.00 0.00 89 1015.7
20260904133105 26 111 4.8 16.1 0.00 0.00 0.00 89 1014.0
20260904133027 26 113 3.2 16.1 0.00 0.00 0.00 90 1015.6
20260904131556 26 134 9.7 19.3 0.00 0.00 0.00 89 1013.8
20260904131525 26 128 9.7 19.3 0.00 0.00 0.00 90 1015.3
20260904130058 26 157 4.8 12.9 0.00 0.00 0.00 89 1013.6
20260904130023 26 130 3.2 12.9 0.00 0.00 0.00 90 1015.1
20260904124602 26 129 3.2 12.9 0.00 0.00 0.00 89 1013.5
20260904124522 26 129 3.2 12.9 0.00 0.00 0.00 90 1015.0
20260904123056 26 174 3.2 14.5 0.00 0.00 0.00 89 1013.4
20260904123019 26 119 3.2 14.5 0.00 0.00 0.00 89 1014.8
20260904121553 26 138 4.8 16.1 0.00 0.00 0.00 89 1013.2
20260904121518 26 143 6.4 16.1 0.00 0.00 0.00 89 1014.6
20260904120056 26 115 3.2 14.5 0.00 0.00 0.00 89 1013.2
20260904120017 26 104 3.2 12.9 0.00 0.00 0.00 89 1014.5
20260904114557 26 139 4.8 12.9 0.00 0.00 0.00 88 1012.9
20260904114517 26 135 4.8 12.9 0.00 0.00 0.00 89 1014.5
20260904113054 26 0 3.2 14.5 0.00 0.00 0.00 88 1012.8
20260904113014 26 124 3.2 14.5 0.00 0.00 0.00 88 1014.4
20260904111553 26 155 1.6 8.0 0.00 0.00 0.00 88 1012.5
20260904111513 26 154 3.2 8.0 0.00 0.00 0.00 88 1014.1
20260904110101 26 176 0.0 6.4 0.00 0.00 0.00 87 1012.4
20260904110012 26 178 0.0 6.4 0.00 0.00 0.00 88 1014.0
20260904104555 26 0 3.2 12.9 0.00 0.00 0.00 87 1012.4
20260904104512 26 188 4.8 12.9 0.00 0.00 0.00 88 1014.1
20260904103103 26 0 1.6 14.5 0.00 0.00 0.00 87 1012.4
20260904103009 26 210 1.6 12.9 0.00 0.00 0.00 87 1014.2
20260904101554 26 146 1.6 12.9 0.00 0.00 0.00 86 1012.4
20260904101507 26 111 1.6 12.9 0.00 0.00 0.00 87 1014.1
20260904100056 26 197 6.4 17.7 0.00 0.00 0.00 86 1012.4
20260904100007 26 185 6.4 17.7 0.00 0.00 0.00 87 1014.2
20260904094556 26 167 4.8 19.3 0.00 0.00 0.00 86 1012.4
20260904094508 26 204 3.2 19.3 0.00 0.00 0.00 86 1014.1
20260904093055 26 156 4.8 16.1 0.00 0.00 0.00 86 1012.3
20260904093005 26 191 3.2 12.9 0.00 0.00 0.00 86 1014.0
20260904091557 26 169 4.8 16.1 0.00 0.00 0.00 86 1012.4
20260904091512 26 168 3.2 14.5 0.00 0.00 0.00 86 1014.1
20260904090049 26 133 6.4 14.5 0.00 0.00 0.00 85 1012.3
20260904090009 26 165 4.8 14.5 0.00 0.00 0.00 86 1014.1
20260904084602 26 149 6.4 17.7 0.00 0.00 0.00 85 1012.4
20260904084502 26 147 6.4 17.7 0.00 0.00 0.00 85 1014.1
20260904083103 26 126 6.4 16.1 0.00 0.00 0.00 85 1014.1
20260904081600 26 173 3.2 6.4 0.00 0.00 0.00 85 1014.2
20260904081555 26 0 3.2 9.7 0.00 0.00 0.00 84 1012.4
20260904080059 26 186 8.0 14.5 0.00 0.00 0.00 85 1014.1
20260904080048 26 153 4.8 19.3 0.00 0.00 0.00 84 1012.5
20260904074606 27 136 4.8 12.9 0.00 0.00 0.00 84 1014.3
20260904073055 27 143 4.8 16.1 0.00 0.00 0.00 84 1014.5
20260904071656 27 119 4.8 11.3 0.00 0.00 0.00 83 1014.7
20260904071623 27 152 3.2 17.7 0.00 0.00 0.00 83 1013.0
20260904070113 27 157 3.2 16.1 0.00 0.00 0.00 82 1012.8
20260904070106 27 187 3.2 14.5 0.00 0.00 0.00 83 1014.6
20260904064606 27 163 4.8 14.5 0.00 0.00 0.00 82 1012.8
20260904063056 27 137 4.8 19.3 0.00 0.00 0.00 82 1013.0
20260904063054 27 172 8.0 16.1 0.00 0.00 0.00 82 1014.7
20260904061551 27 142 9.7 19.3 0.00 0.00 0.00 82 1013.0
20260904061549 27 174 8.0 19.3 0.00 0.00 0.00 82 1014.7
20260904060100 27 168 8.0 25.7 0.00 0.00 0.00 81 1013.0
20260904060048 27 269 8.0 25.7 0.00 0.00 0.00 82 1014.7
20260904054556 27 182 8.0 24.1 0.00 0.00 0.00 81 1013.1
20260904054546 27 159 8.0 22.5 0.00 0.00 0.00 81 1014.8
20260904053104 27 173 8.0 17.7 0.00 0.00 0.00 80 1013.1
20260904053055 27 159 8.0 17.7 0.00 0.00 0.00 80 1014.7
20260904051554 27 153 8.0 24.1 0.00 0.00 0.00 79 1013.1
20260904051542 27 121 4.8 20.9 0.00 0.00 0.00 80 1014.7
20260904050056 27 198 11.3 19.3 0.00 0.00 0.00 78 1013.0
20260904050042 27 164 9.7 20.9 0.00 0.00 0.00 79 1014.7
20260904044607 28 186 6.4 22.5 0.00 0.00 0.00 78 1012.8
20260904044539 28 207 6.4 22.5 0.00 0.00 0.00 78 1014.6
20260904043054 28 169 11.3 25.7 0.00 0.00 0.00 77 1012.4
20260904043038 28 169 11.3 25.7 0.00 0.00 0.00 77 1014.1
20260904041548 28 116 11.3 27.4 0.00 0.00 0.00 75 1012.5
20260904041542 28 140 11.3 27.4 0.00 0.00 0.00 75 1014.1
20260904040054 28 167 11.3 30.6 0.00 0.00 0.00 72 1012.6
20260904040037 28 122 12.9 29.0 0.00 0.00 0.00 73 1014.1
20260904034555 29 144 12.9 29.0 0.00 0.00 0.00 69 1012.7
20260904034536 29 135 11.3 29.0 0.00 0.00 0.00 69 1014.2
20260904033057 30 138 11.3 27.4 0.00 0.00 0.00 64 1012.5
20260904033036 30 138 9.7 25.7 0.00 0.00 0.00 65 1014.1
20260904031606 30 163 9.7 37.0 0.00 0.00 0.00 63 1012.4
20260904031541 30 135 8.0 27.4 0.00 0.00 0.00 64 1013.8
20260904030055 30 170 11.3 37.0 0.00 0.00 0.00 62 1012.1
20260904030037 30 155 11.3 35.4 0.00 0.00 0.00 63 1013.5
20260904024556 30 119 11.3 25.7 0.00 0.00 0.00 62 1011.8
20260904024536 30 123 11.3 25.7 0.00 0.00 0.00 62 1013.3
20260904023050 30 145 9.7 25.7 0.00 0.00 0.00 62 1011.2
20260904023033 30 123 9.7 19.3 0.00 0.00 0.00 62 1012.8
20260904021555 31 84 9.7 25.7 0.00 0.00 0.00 61 1011.0
20260904021544 31 130 9.7 19.3 0.00 0.00 0.00 62 1012.7
20260904020055 31 140 9.7 22.5 0.00 0.00 0.00 61 1010.8
20260904020040 31 160 9.7 22.5 0.00 0.00 0.00 62 1012.3
20260904014551 31 84 8.0 25.7 0.00 0.00 0.00 61 1010.6
20260904014533 31 84 8.0 25.7 0.00 0.00 0.00 62 1012.2
20260904013057 31 122 14.5 25.7 0.00 0.00 0.00 60 1010.4
20260904013031 31 122 16.1 25.7 0.00 0.00 0.00 61 1012.1
20260904011554 32 143 19.3 32.2 0.00 0.00 0.00 58 1010.2
20260904011531 32 152 17.7 32.2 0.00 0.00 0.00 59 1011.8
20260904010100 33 79 11.3 30.6 0.00 0.00 0.00 55 1010.0
20260904010031 33 79 11.3 27.4 0.00 0.00 0.00 56 1011.6
20260904004559 34 115 17.7 33.8 0.00 0.00 0.00 52 1009.8
20260904004530 34 115 19.3 33.8 0.00 0.00 0.00 53 1011.3
20260904003101 35 88 11.3 25.7 0.00 0.00 0.00 49 1009.4
20260904003030 35 78 12.9 25.7 0.00 0.00 0.00 50 1011.0
20260904001601 36 117 8.0 19.3 0.00 0.00 0.00 47 1009.3
20260904001530 36 82 9.7 19.3 0.00 0.00 0.00 47 1010.9
20260904000028 36 84 9.7 17.7 0.00 0.00 0.00 45 1010.8
20260903234555 36 0 6.4 14.5 0.00 0.00 0.00 43 1009.1
20260903234527 36 64 6.4 14.5 0.00 0.00 0.00 44 1010.6
20260903233054 36 115 6.4 20.9 0.00 0.00 0.00 44 1009.1
20260903233033 36 69 6.4 20.9 0.00 0.00 0.00 44 1010.7
20260903231555 36 146 8.0 17.7 0.00 0.00 0.00 43 1009.1
20260903231526 36 140 9.7 16.1 0.00 0.00 0.00 43 1010.7
20260903230027 37 129 8.0 20.9 0.00 0.00 0.00 44 1010.6
20260903224604 36 0 6.4 20.9 0.00 0.00 0.00 43 1009.0
20260903224533 36 54 3.2 20.9 0.00 0.00 0.00 44 1010.5
20260903223102 37 128 8.0 19.3 0.00 0.00 0.00 45 1009.0
20260903223022 37 154 8.0 19.3 0.00 0.00 0.00 45 1010.6
20260903221558 37 116 4.8 20.9 0.00 0.00 0.00 43 1009.0
20260903221540 37 149 4.8 17.7 0.00 0.00 0.00 44 1010.7
20260903220058 37 0 3.2 14.5 0.00 0.00 0.00 44 1009.2
20260903220020 37 136 1.6 14.5 0.00 0.00 0.00 44 1010.7
20260903214602 37 122 6.4 16.1 0.00 0.00 0.00 44 1009.4
20260903214519 37 116 4.8 16.1 0.00 0.00 0.00 44 1010.9
20260903213100 38 36 8.0 14.5 0.00 0.00 0.00 43 1009.5
20260903213021 38 103 9.7 14.5 0.00 0.00 0.00 43 1011.0
20260903211556 38 132 8.0 19.3 0.00 0.00 0.00 43 1009.6
20260903211513 38 188 11.3 19.3 0.00 0.00 0.00 44 1011.1
20260903210055 37 0 6.4 16.1 0.00 0.00 0.00 43 1010.0
20260903210014 37 171 4.8 16.1 0.00 0.00 0.00 44 1011.5
20260903204556 37 196 4.8 19.3 0.00 0.00 0.00 45 1010.0
20260903204510 37 197 4.8 19.3 0.00 0.00 0.00 45 1011.7
20260903203059 37 155 6.4 16.1 0.00 0.00 0.00 45 1010.2
20260903203010 37 86 6.4 16.1 0.00 0.00 0.00 45 1011.8
20260903201558 37 163 8.0 16.1 0.00 0.00 0.00 45 1010.4
20260903201504 37 228 8.0 16.1 0.00 0.00 0.00 46 1012.0
20260903200057 36 142 8.0 20.9 0.00 0.00 0.00 48 1010.6
20260903200002 36 135 8.0 20.9 0.00 0.00 0.00 49 1012.1
20260903194559 36 156 9.7 20.9 0.00 0.00 0.00 48 1012.2
20260903194553 36 142 4.8 17.7 0.00 0.00 0.00 47 1010.8
20260903193100 36 128 9.7 20.9 0.00 0.00 0.00 47 1011.0
20260903193056 36 221 8.0 19.3 0.00 0.00 0.00 48 1012.7
20260903191554 36 112 3.2 16.1 0.00 0.00 0.00 49 1011.4
20260903190053 36 0 4.8 16.1 0.00 0.00 0.00 53 1011.7
20260903184556 36 181 4.8 14.5 0.00 0.00 0.00 53 1011.9
20260903184548 36 164 3.2 14.5 0.00 0.00 0.00 53 1013.3
20260903183055 35 184 4.8 14.5 0.00 0.00 0.00 55 1012.1
20260903183044 35 169 3.2 14.5 0.00 0.00 0.00 56 1013.6
20260903181553 35 0 3.2 20.9 0.00 0.00 0.00 57 1012.4
20260903181541 35 209 3.2 17.7 0.00 0.00 0.00 57 1014.2
20260903180116 35 231 3.2 16.1 0.00 0.00 0.00 59 1012.5
20260903180105 35 160 3.2 14.5 0.00 0.00 0.00 60 1014.2
20260903174557 34 153 9.7 17.7 0.00 0.00 0.00 60 1012.9
20260903174536 34 142 8.0 17.7 0.00 0.00 0.00 60 1014.5
20260903173058 33 176 6.4 20.9 0.00 0.00 0.00 61 1012.9
20260903173033 33 176 3.2 19.3 0.00 0.00 0.00 61 1014.7
20260903171554 33 110 1.6 16.1 0.00 0.00 0.00 66 1013.2
20260903171530 33 110 0.0 16.1 0.00 0.00 0.00 67 1014.8
20260903170059 33 163 3.2 14.5 0.00 0.00 0.00 66 1013.4
20260903170028 33 165 1.6 14.5 0.00 0.00 0.00 67 1014.9
20260903164601 32 234 4.8 14.5 0.00 0.00 0.00 66 1013.5
20260903164524 32 209 4.8 12.9 0.00 0.00 0.00 66 1015.0
20260903163056 32 207 3.2 12.9 0.00 0.00 0.00 69 1013.5
20260903163037 32 230 4.8 12.9 0.00 0.00 0.00 70 1015.2
20260903161551 32 182 4.8 12.9 0.00 0.00 0.00 69 1013.7
20260903161520 32 192 3.2 11.3 0.00 0.00 0.00 69 1015.2